Regional Weather Roundup
Issued by NWS Kansas City/Pleasant Hill, MO

Home | Current Version | Previous Version | Text Only | Print | Product List | Glossary On
Versions: 1 2 3 4 5 6 7 8 9 10 11 12 13 14 15 16 17 18 19 20 21 22 23 24 25 26 27 28 29 30 31 32 33 34 35 36 37 38 39 40 41 42 43 44 45 46 47 48 49 50
000
ASUS43 KEAX 281411
RWREAX

WEATHER ROUNDUP FOR EASTERN KANSAS AND NORTHWEST MISSOURI
NATIONAL WEATHER SERVICE KANSAS CITY/PLEASANT HILL MO
900 AM CDT MON JUL 28 2014

KSZ040-057-103>105-MOZ028-029-037-043-281500-
...KANSAS CITY METROPOLITAN AREA...

CITY           SKY/WX    TMP DP  RH WIND       PRES   REMARKS
K.C. INTL      MOSUNNY   67  59  75 N10       30.21R
K.C. DOWNTOWN  SUNNY     69  59  70 N8        30.20R
LEES SUMMIT    SUNNY     67  58  72 N9        30.21R
OLATHE - IXD   SUNNY     67  59  75 NW9       30.22R
OLATHE - OJC   SUNNY     68  58  70 N10       30.20S
LAWRENCE       SUNNY     69  59  70 N9        30.22S

$$

MOZ001>008-011>017-020>025-030>033-038>040-044>046-053-054-281500-
...NORTHERN AND CENTRAL MISSOURI...

CITY           SKY/WX    TMP DP  RH WIND       PRES   REMARKS
ST. JOSEPH     SUNNY     66  60  81 N13       30.22R
MOSBY          SUNNY     66  59  77 N9        30.20R
WHITEMAN AFB   SUNNY     67  51  55 N12       30.17S
CLINTON        SUNNY     70  61  73 N9        30.18S
SEDALIA        SUNNY     68  60  75 N10       30.17S
WARSAW         NOT AVBL
MARSHALL       SUNNY     70  63  78 N7        30.18R
CHILLICOTHE      N/A     67  59  75 VRB5      30.20R
MOBERLY        SUNNY     70  59  68 N8        30.17R
KIRKSVILLE     CLOUDY    65  59  81 N7        30.18R

$$

MOZ041-047>049-056>058-063>065-088>090-097-281500-
...EASTERN AND SOUTHERN MISSOURI...

CITY           SKY/WX    TMP DP  RH WIND       PRES   REMARKS
ST. LOUIS INTL MOSUNNY   72  62  71 N10       30.10R
SPIRIT OF STL  PTSUNNY   70  60  70 N10       30.09R
COLUMBIA       SUNNY     69  60  73 N14       30.15R
JEFFERSON CITY SUNNY     70  60  70 NW7       30.14R
MEXICO         MOSUNNY   70  64  83 N7        30.14R
HANNIBAL       CLOUDY    68  61  77 N8        30.14R
ROLLA          SUNNY     68  58  70 N9        30.13R
LEBANON        SUNNY     70  59  68 NW7       30.17S
OSAGE BEACH    SUNNY     70  57  64 N7        30.16R
SPRINGFIELD    SUNNY     70  57  63 N14       30.17S
BRANSON        PTSUNNY   72  57  60 N7        30.19R
NEVADA         SUNNY     70  59  68 N7        30.21R
JOPLIN         SUNNY     71  59  65 N7        30.20R
WEST PLAINS    SUNNY     71  58  63 NW8       30.15S

$$

IAZ060-094-KSZ022-034>040-054-083-096-NEZ052-066-093-281500-
...KANSAS...SOUTHEAST NEBRASKA AND IOWA...

CITY           SKY/WX    TMP DP  RH WIND       PRES   REMARKS
TOPEKA         SUNNY     70  59  68 N10       30.24R
MANHATTAN      SUNNY     68  57  68 NE9       30.26R
EMPORIA        MOSUNNY   69  57  65 N10       30.25R
CHANUTE        SUNNY     70  60  70 N7        30.22R
WICHITA        MOSUNNY   72  58  61 NE8       30.27R
OMAHA          CLOUDY    64  56  75 N10       30.26R
LINCOLN        MOSUNNY   68  55  63 N10       30.30R
FALLS CITY     SUNNY     66  58  75 N8        30.24R
LAMONI         CLOUDY    64  58  80 N12       30.21R
DES MOINES     MOSUNNY   68  55  63 NE7       30.20R

$$




USA.gov is the U.S. government's official web portal to all federal, state and local government web resources and services.